owner,sensor,date,latitude,longitude,vertical_datum,mass_concentration_of_oxygen_in_sea_water,qcFlag 
LUMCON,ioos:station:LUMCON:101:1,2019-07-01T00:00:00Z,29.2533,-90.6633,1.729,7.87,11111222 
LUMCON,ioos:station:LUMCON:101:1,2019-07-01T00:15:00Z,29.2533,-90.6633,1.726,7.65,11111222 
LUMCON,ioos:station:LUMCON:101:1,2019-07-01T00:30:00Z,29.2533,-90.6633,1.721,7.83,11111222 
LUMCON,ioos:station:LUMCON:101:1,2019-07-01T00:45:00Z,29.2533,-90.6633,1.71,7.73,11111222 
LUMCON,ioos:station:LUMCON:101:1,2019-07-01T01:00:00Z,29.2533,-90.6633,1.702,7.64,11111222 
LUMCON,ioos:station:LUMCON:101:1,2019-07-01T01:15:00Z,29.2533,-90.6633,1.697,7.66,11111222 
LUMCON,ioos:station:LUMCON:101:1,2019-07-01T01:30:00Z,29.2533,-90.6633,1.689,7.5,11111222 
LUMCON,ioos:station:LUMCON:101:1,2019-07-01T01:45:00Z,29.2533,-90.6633,1.681,7.42,11111222 
LUMCON,ioos:station:LUMCON:101:1,2019-07-01T02:00:00Z,29.2533,-90.6633,1.679,7.4,11111222 
LUMCON,ioos:station:LUMCON:101:1,2019-07-01T02:15:00Z,29.2533,-90.6633,1.682,7.3,11111222 
LUMCON,ioos:station:LUMCON:101:1,2019-07-01T02:30:00Z,29.2533,-90.6633,1.684,7.2,11111222 
LUMCON,ioos:station:LUMCON:101:1,2019-07-01T02:45:00Z,29.2533,-90.6633,1.69,7.13,11111222 
LUMCON,ioos:station:LUMCON:101:1,2019-07-01T03:00:00Z,29.2533,-90.6633,1.703,7.13,11111222 
LUMCON,ioos:station:LUMCON:101:1,2019-07-01T03:15:00Z,29.2533,-90.6633,1.7,7.14,11111222 
LUMCON,ioos:station:LUMCON:101:1,2019-07-01T03:30:00Z,29.2533,-90.6633,1.706,6.83,11111222 
LUMCON,ioos:station:LUMCON:101:1,2019-07-01T03:45:00Z,29.2533,-90.6633,1.714,6.85,11111222 
LUMCON,ioos:station:LUMCON:101:1,2019-07-01T04:00:00Z,29.2533,-90.6633,1.721,6.51,11111222 
LUMCON,ioos:station:LUMCON:101:1,2019-07-01T04:15:00Z,29.2533,-90.6633,1.731,6.57,11111222 
LUMCON,ioos:station:LUMCON:101:1,2019-07-01T04:30:00Z,29.2533,-90.6633,1.746,6.51,11111222 
LUMCON,ioos:station:LUMCON:101:1,2019-07-01T04:45:00Z,29.2533,-90.6633,1.77,6.68,11111222 
LUMCON,ioos:station:LUMCON:101:1,2019-07-01T05:00:00Z,29.2533,-90.6633,1.787,7.02,11111222 
LUMCON,ioos:station:LUMCON:101:1,2019-07-01T05:15:00Z,29.2533,-90.6633,1.803,7.0,11111222 
LUMCON,ioos:station:LUMCON:101:1,2019-07-01T05:30:00Z,29.2533,-90.6633,1.818,7.15,11111222 
LUMCON,ioos:station:LUMCON:101:1,2019-07-01T05:45:00Z,29.2533,-90.6633,1.825,7.18,11111222 
LUMCON,ioos:station:LUMCON:101:1,2019-07-01T06:00:00Z,29.2533,-90.6633,1.835,7.21,11111222 
LUMCON,ioos:station:LUMCON:101:1,2019-07-01T06:15:00Z,29.2533,-90.6633,1.857,7.21,11111222 
LUMCON,ioos:station:LUMCON:101:1,2019-07-01T21:30:00Z,29.2533,-90.6633,1.903,6.75,11111222 
LUMCON,ioos:station:LUMCON:101:1,2019-07-01T21:45:00Z,29.2533,-90.6633,1.885,6.52,11111222 
LUMCON,ioos:station:LUMCON:101:1,2019-07-01T22:00:00Z,29.2533,-90.6633,1.87,6.7,11111222 
LUMCON,ioos:station:LUMCON:101:1,2019-07-01T22:15:00Z,29.2533,-90.6633,1.858,6.58,11111222 
LUMCON,ioos:station:LUMCON:101:1,2019-07-01T22:30:00Z,29.2533,-90.6633,1.848,6.53,11111222 
LUMCON,ioos:station:LUMCON:101:1,2019-07-01T22:45:00Z,29.2533,-90.6633,1.84,6.69,11111222 
LUMCON,ioos:station:LUMCON:101:1,2019-07-01T23:00:00Z,29.2533,-90.6633,1.832,6.4,11111222 
LUMCON,ioos:station:LUMCON:101:1,2019-07-01T23:15:00Z,29.2533,-90.6633,1.812,6.34,11111222 
LUMCON,ioos:station:LUMCON:101:1,2019-07-01T23:30:00Z,29.2533,-90.6633,1.8,6.4,11111222 
LUMCON,ioos:station:LUMCON:101:1,2019-07-01T23:45:00Z,29.2533,-90.6633,1.786,6.19,11111222 
LUMCON,ioos:station:LUMCON:101:1,2019-07-02T00:00:00Z,29.2533,-90.6633,1.777,6.56,11111222 
LUMCON,ioos:station:LUMCON:101:1,2019-07-02T00:15:00Z,29.2533,-90.6633,1.763,6.25,11111222 
LUMCON,ioos:station:LUMCON:101:1,2019-07-02T00:30:00Z,29.2533,-90.6633,1.752,6.47,11111222 
LUMCON,ioos:station:LUMCON:101:1,2019-07-02T00:45:00Z,29.2533,-90.6633,1.743,6.51,11111222 
LUMCON,ioos:station:LUMCON:101:1,2019-07-02T01:00:00Z,29.2533,-90.6633,1.736,6.58,11111222 
LUMCON,ioos:station:LUMCON:101:1,2019-07-02T01:15:00Z,29.2533,-90.6633,1.732,6.46,11111222 
LUMCON,ioos:station:LUMCON:101:1,2019-07-02T01:30:00Z,29.2533,-90.6633,1.733,6.52,11111222 
LUMCON,ioos:station:LUMCON:101:1,2019-07-02T01:45:00Z,29.2533,-90.6633,1.73,6.41,11111222 
LUMCON,ioos:station:LUMCON:101:1,2019-07-02T02:00:00Z,29.2533,-90.6633,1.722,6.42,11111222 
LUMCON,ioos:station:LUMCON:101:1,2019-07-02T02:15:00Z,29.2533,-90.6633,1.707,6.4,11111222 
LUMCON,ioos:station:LUMCON:101:1,2019-07-02T02:30:00Z,29.2533,-90.6633,1.692,6.44,11111222 
LUMCON,ioos:station:LUMCON:101:1,2019-07-02T02:45:00Z,29.2533,-90.6633,1.681,6.34,11111222 
LUMCON,ioos:station:LUMCON:101:1,2019-07-02T03:00:00Z,29.2533,-90.6633,1.676,6.32,11111222 
LUMCON,ioos:station:LUMCON:101:1,2019-07-02T03:15:00Z,29.2533,-90.6633,1.668,6.27,11111222 
LUMCON,ioos:station:LUMCON:101:1,2019-07-02T03:30:00Z,29.2533,-90.6633,1.667,6.12,11111222 
LUMCON,ioos:station:LUMCON:101:1,2019-07-02T03:45:00Z,29.2533,-90.6633,1.684,6.14,11111222 
LUMCON,ioos:station:LUMCON:101:1,2019-07-02T04:00:00Z,29.2533,-90.6633,1.693,5.63,11111222 
LUMCON,ioos:station:LUMCON:101:1,2019-07-02T04:15:00Z,29.2533,-90.6633,1.707,5.92,11111222 
LUMCON,ioos:station:LUMCON:101:1,2019-07-02T04:30:00Z,29.2533,-90.6633,1.715,5.8,11111222 
LUMCON,ioos:station:LUMCON:101:1,2019-07-02T04:45:00Z,29.2533,-90.6633,1.721,5.68,11111222 
LUMCON,ioos:station:LUMCON:101:1,2019-07-02T05:00:00Z,29.2533,-90.6633,1.722,5.54,11111222 
LUMCON,ioos:station:LUMCON:101:1,2019-07-02T05:15:00Z,29.2533,-90.6633,1.729,5.54,11111222 
LUMCON,ioos:station:LUMCON:101:1,2019-07-02T05:30:00Z,29.2533,-90.6633,1.734,5.28,11111222 
LUMCON,ioos:station:LUMCON:101:1,2019-07-02T05:45:00Z,29.2533,-90.6633,1.737,5.21,11111222 
LUMCON,ioos:station:LUMCON:101:1,2019-07-02T06:00:00Z,29.2533,-90.6633,1.747,4.99,11111222 
LUMCON,ioos:station:LUMCON:101:1,2019-07-02T06:15:00Z,29.2533,-90.6633,1.763,5.31,11111222 
LUMCON,ioos:station:LUMCON:101:1,2019-07-02T06:30:00Z,29.2533,-90.6633,1.772,4.98,11111222 
LUMCON,ioos:station:LUMCON:101:1,2019-07-02T06:45:00Z,29.2533,-90.6633,1.787,5.52,11111222 
LUMCON,ioos:station:LUMCON:101:1,2019-07-02T07:00:00Z,29.2533,-90.6633,1.801,5.42,11111222 
LUMCON,ioos:station:LUMCON:101:1,2019-07-02T07:15:00Z,29.2533,-90.6633,1.82,5.6,11111222 
LUMCON,ioos:station:LUMCON:101:1,2019-07-02T07:30:00Z,29.2533,-90.6633,1.836,5.76,11111222 
LUMCON,ioos:station:LUMCON:101:1,2019-07-02T07:45:00Z,29.2533,-90.6633,1.852,5.84,11111222 
LUMCON,ioos:station:LUMCON:101:1,2019-07-02T08:00:00Z,29.2533,-90.6633,1.869,5.82,11111222 
LUMCON,ioos:station:LUMCON:101:1,2019-07-02T08:15:00Z,29.2533,-90.6633,1.887,5.82,11111222 
LUMCON,ioos:station:LUMCON:101:1,2019-07-02T08:30:00Z,29.2533,-90.6633,1.902,5.86,11111222 
LUMCON,ioos:station:LUMCON:101:1,2019-07-02T08:45:00Z,29.2533,-90.6633,1.914,5.78,11111222 
LUMCON,ioos:station:LUMCON:101:1,2019-07-02T09:00:00Z,29.2533,-90.6633,1.926,5.8,11111222 
LUMCON,ioos:station:LUMCON:101:1,2019-07-02T09:15:00Z,29.2533,-90.6633,1.936,5.71,11111222 
LUMCON,ioos:station:LUMCON:101:1,2019-07-02T09:30:00Z,29.2533,-90.6633,1.947,5.77,11111222 
LUMCON,ioos:station:LUMCON:101:1,2019-07-02T09:45:00Z,29.2533,-90.6633,1.958,5.68,11111222 
LUMCON,ioos:station:LUMCON:101:1,2019-07-02T10:00:00Z,29.2533,-90.6633,1.969,5.54,11111222 
LUMCON,ioos:station:LUMCON:101:1,2019-07-02T10:15:00Z,29.2533,-90.6633,1.976,5.46,11111222 
LUMCON,ioos:station:LUMCON:101:1,2019-07-02T10:30:00Z,29.2533,-90.6633,1.987,5.32,11111222 
LUMCON,ioos:station:LUMCON:101:1,2019-07-02T10:45:00Z,29.2533,-90.6633,1.995,5.3,11111222 
LUMCON,ioos:station:LUMCON:101:1,2019-07-02T11:00:00Z,29.2533,-90.6633,2.002,5.19,11111222 
LUMCON,ioos:station:LUMCON:101:1,2019-07-02T11:15:00Z,29.2533,-90.6633,2.01,5.24,11111222 
LUMCON,ioos:station:LUMCON:101:1,2019-07-02T11:30:00Z,29.2533,-90.6633,2.019,5.22,11111222 
LUMCON,ioos:station:LUMCON:101:1,2019-07-02T11:45:00Z,29.2533,-90.6633,2.027,5.3,11111222 
LUMCON,ioos:station:LUMCON:101:1,2019-07-02T12:00:00Z,29.2533,-90.6633,2.034,5.41,11111222 
LUMCON,ioos:station:LUMCON:101:1,2019-07-02T12:15:00Z,29.2533,-90.6633,2.042,5.43,11111222 
LUMCON,ioos:station:LUMCON:101:1,2019-07-02T12:30:00Z,29.2533,-90.6633,2.052,5.35,11111222 
LUMCON,ioos:station:LUMCON:101:1,2019-07-02T12:45:00Z,29.2533,-90.6633,2.06,5.4,11111222 
LUMCON,ioos:station:LUMCON:101:1,2019-07-02T13:00:00Z,29.2533,-90.6633,2.07,5.4,11111222 
LUMCON,ioos:station:LUMCON:101:1,2019-07-02T13:15:00Z,29.2533,-90.6633,2.076,5.36,11111222 
LUMCON,ioos:station:LUMCON:101:1,2019-07-02T13:30:00Z,29.2533,-90.6633,2.084,5.42,11111222 
LUMCON,ioos:station:LUMCON:101:1,2019-07-02T13:45:00Z,29.2533,-90.6633,2.091,5.41,11111222 
LUMCON,ioos:station:LUMCON:101:1,2019-07-02T14:00:00Z,29.2533,-90.6633,2.095,5.52,11111222 
LUMCON,ioos:station:LUMCON:101:1,2019-07-02T14:15:00Z,29.2533,-90.6633,2.101,5.56,11111222 
LUMCON,ioos:station:LUMCON:101:1,2019-07-02T14:30:00Z,29.2533,-90.6633,2.105,5.65,11111222 
LUMCON,ioos:station:LUMCON:101:1,2019-07-02T14:45:00Z,29.2533,-90.6633,2.109,5.64,11111222 
LUMCON,ioos:station:LUMCON:101:1,2019-07-02T15:00:00Z,29.2533,-90.6633,2.108,5.68,11111222 
LUMCON,ioos:station:LUMCON:101:1,2019-07-02T15:15:00Z,29.2533,-90.6633,2.12,5.35,11111222 
LUMCON,ioos:station:LUMCON:101:1,2019-07-02T15:30:00Z,29.2533,-90.6633,2.135,5.34,11111222 
LUMCON,ioos:station:LUMCON:101:1,2019-07-02T15:45:00Z,29.2533,-90.6633,2.153,5.46,11111222 
LUMCON,ioos:station:LUMCON:101:1,2019-07-02T16:00:00Z,29.2533,-90.6633,2.125,5.65,11111222 
LUMCON,ioos:station:LUMCON:101:1,2019-07-02T16:15:00Z,29.2533,-90.6633,2.099,5.99,11111222 
LUMCON,ioos:station:LUMCON:101:1,2019-07-02T16:30:00Z,29.2533,-90.6633,2.08,5.99,11111222 
LUMCON,ioos:station:LUMCON:101:1,2019-07-02T16:45:00Z,29.2533,-90.6633,2.09,5.91,11111222 
LUMCON,ioos:station:LUMCON:101:1,2019-07-02T17:00:00Z,29.2533,-90.6633,2.08,5.8,11111222 
LUMCON,ioos:station:LUMCON:101:1,2019-07-02T17:15:00Z,29.2533,-90.6633,2.069,5.83,11111222 
LUMCON,ioos:station:LUMCON:101:1,2019-07-02T17:30:00Z,29.2533,-90.6633,2.067,5.79,11111222 
LUMCON,ioos:station:LUMCON:101:1,2019-07-02T17:45:00Z,29.2533,-90.6633,2.069,5.72,11111222 
LUMCON,ioos:station:LUMCON:101:1,2019-07-02T18:00:00Z,29.2533,-90.6633,2.081,5.63,11111222 
LUMCON,ioos:station:LUMCON:101:1,2019-07-02T18:15:00Z,29.2533,-90.6633,2.09,5.51,11111222 
LUMCON,ioos:station:LUMCON:101:1,2019-07-02T18:30:00Z,29.2533,-90.6633,2.073,5.41,11111222 
LUMCON,ioos:station:LUMCON:101:1,2019-07-02T18:45:00Z,29.2533,-90.6633,2.058,5.49,11111222 
LUMCON,ioos:station:LUMCON:101:1,2019-07-02T19:00:00Z,29.2533,-90.6633,2.045,5.35,11111222 
LUMCON,ioos:station:LUMCON:101:1,2019-07-02T19:15:00Z,29.2533,-90.6633,2.031,5.18,11111222 
LUMCON,ioos:station:LUMCON:101:1,2019-07-02T19:30:00Z,29.2533,-90.6633,2.027,5.33,11111222 
LUMCON,ioos:station:LUMCON:101:1,2019-07-02T19:45:00Z,29.2533,-90.6633,2.029,5.34,11111222 
LUMCON,ioos:station:LUMCON:101:1,2019-07-02T20:00:00Z,29.2533,-90.6633,2.033,5.21,11111222 
LUMCON,ioos:station:LUMCON:101:1,2019-07-02T20:15:00Z,29.2533,-90.6633,1.999,5.11,11111222 
LUMCON,ioos:station:LUMCON:101:1,2019-07-02T20:30:00Z,29.2533,-90.6633,1.966,5.18,11111222 
LUMCON,ioos:station:LUMCON:101:1,2019-07-02T20:45:00Z,29.2533,-90.6633,1.95,4.97,11111222 
LUMCON,ioos:station:LUMCON:101:1,2019-07-02T21:00:00Z,29.2533,-90.6633,1.933,5.12,11111222 
LUMCON,ioos:station:LUMCON:101:1,2019-07-02T21:15:00Z,29.2533,-90.6633,1.926,5.02,11111222 
LUMCON,ioos:station:LUMCON:101:1,2019-07-02T21:30:00Z,29.2533,-90.6633,1.917,4.98,11111222 
LUMCON,ioos:station:LUMCON:101:1,2019-07-02T21:45:00Z,29.2533,-90.6633,1.904,5.2,11111222 
LUMCON,ioos:station:LUMCON:101:1,2019-07-02T22:00:00Z,29.2533,-90.6633,1.89,5.05,11111222 
LUMCON,ioos:station:LUMCON:101:1,2019-07-02T22:15:00Z,29.2533,-90.6633,1.878,4.97,11111222 
LUMCON,ioos:station:LUMCON:101:1,2019-07-02T22:30:00Z,29.2533,-90.6633,1.864,4.92,11111222 
LUMCON,ioos:station:LUMCON:101:1,2019-07-02T22:45:00Z,29.2533,-90.6633,1.854,4.89,11111222 
LUMCON,ioos:station:LUMCON:101:1,2019-07-02T23:00:00Z,29.2533,-90.6633,1.837,4.77,11111222 
LUMCON,ioos:station:LUMCON:101:1,2019-07-02T23:15:00Z,29.2533,-90.6633,1.823,5.33,11111222 
LUMCON,ioos:station:LUMCON:101:1,2019-07-02T23:30:00Z,29.2533,-90.6633,1.809,4.93,11111222 
LUMCON,ioos:station:LUMCON:101:1,2019-07-02T23:45:00Z,29.2533,-90.6633,1.794,4.7,11111222 
LUMCON,ioos:station:LUMCON:101:1,2019-07-03T00:00:00Z,29.2533,-90.6633,1.784,5.07,11111222 
LUMCON,ioos:station:LUMCON:101:1,2019-07-03T00:15:00Z,29.2533,-90.6633,1.772,5.15,11111222 
LUMCON,ioos:station:LUMCON:101:1,2019-07-03T00:30:00Z,29.2533,-90.6633,1.754,5.08,11111222 
LUMCON,ioos:station:LUMCON:101:1,2019-07-03T00:45:00Z,29.2533,-90.6633,1.74,5.28,11111222 
LUMCON,ioos:station:LUMCON:101:1,2019-07-03T01:00:00Z,29.2533,-90.6633,1.725,5.14,11111222 
LUMCON,ioos:station:LUMCON:101:1,2019-07-03T01:15:00Z,29.2533,-90.6633,1.715,5.42,11111222 
LUMCON,ioos:station:LUMCON:101:1,2019-07-03T01:30:00Z,29.2533,-90.6633,1.707,5.29,11111222 
LUMCON,ioos:station:LUMCON:101:1,2019-07-03T01:45:00Z,29.2533,-90.6633,1.697,5.35,11111222 
LUMCON,ioos:station:LUMCON:101:1,2019-07-03T02:00:00Z,29.2533,-90.6633,1.684,5.27,11111222 
LUMCON,ioos:station:LUMCON:101:1,2019-07-03T02:15:00Z,29.2533,-90.6633,1.671,5.46,11111222 
LUMCON,ioos:station:LUMCON:101:1,2019-07-03T02:30:00Z,29.2533,-90.6633,1.658,5.39,11111222 
LUMCON,ioos:station:LUMCON:101:1,2019-07-03T02:45:00Z,29.2533,-90.6633,1.647,5.44,11111222 
LUMCON,ioos:station:LUMCON:101:1,2019-07-03T03:00:00Z,29.2533,-90.6633,1.636,5.39,11111222 
LUMCON,ioos:station:LUMCON:101:1,2019-07-03T03:15:00Z,29.2533,-90.6633,1.629,5.42,11111222 
LUMCON,ioos:station:LUMCON:101:1,2019-07-03T03:30:00Z,29.2533,-90.6633,1.629,5.36,11111222 
LUMCON,ioos:station:LUMCON:101:1,2019-07-03T03:45:00Z,29.2533,-90.6633,1.616,5.26,11111222 
LUMCON,ioos:station:LUMCON:101:1,2019-07-03T04:00:00Z,29.2533,-90.6633,1.613,5.3,11111222 
LUMCON,ioos:station:LUMCON:101:1,2019-07-03T04:15:00Z,29.2533,-90.6633,1.611,5.24,11111222 
LUMCON,ioos:station:LUMCON:101:1,2019-07-03T04:30:00Z,29.2533,-90.6633,1.626,5.11,11111222 
LUMCON,ioos:station:LUMCON:101:1,2019-07-03T04:45:00Z,29.2533,-90.6633,1.623,5.02,11111222 
LUMCON,ioos:station:LUMCON:101:1,2019-07-03T05:00:00Z,29.2533,-90.6633,1.625,5.1,11111222 
LUMCON,ioos:station:LUMCON:101:1,2019-07-03T05:15:00Z,29.2533,-90.6633,1.631,5.12,11111222 
LUMCON,ioos:station:LUMCON:101:1,2019-07-03T05:30:00Z,29.2533,-90.6633,1.626,4.95,11111222 
LUMCON,ioos:station:LUMCON:101:1,2019-07-03T05:45:00Z,29.2533,-90.6633,1.632,4.95,11111222 
LUMCON,ioos:station:LUMCON:101:1,2019-07-03T06:00:00Z,29.2533,-90.6633,1.647,4.63,11111222 
LUMCON,ioos:station:LUMCON:101:1,2019-07-03T06:15:00Z,29.2533,-90.6633,1.668,4.8,11111222 
LUMCON,ioos:station:LUMCON:101:1,2019-07-03T06:30:00Z,29.2533,-90.6633,1.69,4.52,11111222 
LUMCON,ioos:station:LUMCON:101:1,2019-07-03T06:45:00Z,29.2533,-90.6633,1.707,4.33,11111222 
LUMCON,ioos:station:LUMCON:101:1,2019-07-03T07:00:00Z,29.2533,-90.6633,1.733,4.74,11111222 
LUMCON,ioos:station:LUMCON:101:1,2019-07-03T07:15:00Z,29.2533,-90.6633,1.756,5.03,11111222 
LUMCON,ioos:station:LUMCON:101:1,2019-07-03T07:30:00Z,29.2533,-90.6633,1.774,5.0,11111222 
LUMCON,ioos:station:LUMCON:101:1,2019-07-03T07:45:00Z,29.2533,-90.6633,1.793,4.93,11111222 
LUMCON,ioos:station:LUMCON:101:1,2019-07-03T08:00:00Z,29.2533,-90.6633,1.814,4.72,11111222 
LUMCON,ioos:station:LUMCON:101:1,2019-07-03T08:15:00Z,29.2533,-90.6633,1.827,4.59,11111222 
LUMCON,ioos:station:LUMCON:101:1,2019-07-03T08:30:00Z,29.2533,-90.6633,1.845,4.43,11111222 
LUMCON,ioos:station:LUMCON:101:1,2019-07-03T08:45:00Z,29.2533,-90.6633,1.859,4.63,11111222 
LUMCON,ioos:station:LUMCON:101:1,2019-07-03T09:00:00Z,29.2533,-90.6633,1.866,4.41,11111222 
LUMCON,ioos:station:LUMCON:101:1,2019-07-03T09:15:00Z,29.2533,-90.6633,1.876,4.61,11111222 
LUMCON,ioos:station:LUMCON:101:1,2019-07-03T09:30:00Z,29.2533,-90.6633,1.889,4.33,11111222 
LUMCON,ioos:station:LUMCON:101:1,2019-07-03T09:45:00Z,29.2533,-90.6633,1.9,4.49,11111222 
LUMCON,ioos:station:LUMCON:101:1,2019-07-03T10:00:00Z,29.2533,-90.6633,1.913,4.5,11111222 
LUMCON,ioos:station:LUMCON:101:1,2019-07-03T10:15:00Z,29.2533,-90.6633,1.926,4.65,11111222 
LUMCON,ioos:station:LUMCON:101:1,2019-07-03T10:30:00Z,29.2533,-90.6633,1.941,4.55,11111222 
LUMCON,ioos:station:LUMCON:101:1,2019-07-03T10:45:00Z,29.2533,-90.6633,1.954,4.64,11111222 
LUMCON,ioos:station:LUMCON:101:1,2019-07-03T11:00:00Z,29.2533,-90.6633,1.965,4.61,11111222 
LUMCON,ioos:station:LUMCON:101:1,2019-07-03T11:15:00Z,29.2533,-90.6633,1.975,4.57,11111222 
LUMCON,ioos:station:LUMCON:101:1,2019-07-03T11:30:00Z,29.2533,-90.6633,1.988,4.54,11111222 
LUMCON,ioos:station:LUMCON:101:1,2019-07-03T11:45:00Z,29.2533,-90.6633,2.005,4.81,11111222 
LUMCON,ioos:station:LUMCON:101:1,2019-07-03T12:00:00Z,29.2533,-90.6633,2.018,4.69,11111222 
LUMCON,ioos:station:LUMCON:101:1,2019-07-03T12:15:00Z,29.2533,-90.6633,2.024,4.9,11111222 
LUMCON,ioos:station:LUMCON:101:1,2019-07-03T12:30:00Z,29.2533,-90.6633,2.025,4.63,11111222 
LUMCON,ioos:station:LUMCON:101:1,2019-07-03T12:45:00Z,29.2533,-90.6633,2.028,4.69,11111222 
LUMCON,ioos:station:LUMCON:101:1,2019-07-03T13:00:00Z,29.2533,-90.6633,2.036,4.68,11111222 
LUMCON,ioos:station:LUMCON:101:1,2019-07-03T13:15:00Z,29.2533,-90.6633,2.048,4.7,11111222 
LUMCON,ioos:station:LUMCON:101:1,2019-07-03T13:30:00Z,29.2533,-90.6633,2.058,4.96,11111222 
LUMCON,ioos:station:LUMCON:101:1,2019-07-03T13:45:00Z,29.2533,-90.6633,2.067,4.84,11111222 
LUMCON,ioos:station:LUMCON:101:1,2019-07-03T14:00:00Z,29.2533,-90.6633,2.071,5.1,11111222 
LUMCON,ioos:station:LUMCON:101:1,2019-07-03T14:15:00Z,29.2533,-90.6633,2.074,4.91,11111222 
LUMCON,ioos:station:LUMCON:101:1,2019-07-03T14:30:00Z,29.2533,-90.6633,2.077,5.06,11111222 
LUMCON,ioos:station:LUMCON:101:1,2019-07-03T14:45:00Z,29.2533,-90.6633,2.084,5.09,11111222 
LUMCON,ioos:station:LUMCON:101:1,2019-07-03T15:00:00Z,29.2533,-90.6633,2.095,5.13,11111222 
LUMCON,ioos:station:LUMCON:101:1,2019-07-03T15:15:00Z,29.2533,-90.6633,2.108,5.22,11111222 
LUMCON,ioos:station:LUMCON:101:1,2019-07-03T15:30:00Z,29.2533,-90.6633,2.118,5.15,11111222 
LUMCON,ioos:station:LUMCON:101:1,2019-07-03T15:45:00Z,29.2533,-90.6633,2.123,5.3,11111222 
LUMCON,ioos:station:LUMCON:101:1,2019-07-03T16:00:00Z,29.2533,-90.6633,2.129,5.36,11111222 
LUMCON,ioos:station:LUMCON:101:1,2019-07-03T16:15:00Z,29.2533,-90.6633,2.132,5.43,11111222 
LUMCON,ioos:station:LUMCON:101:1,2019-07-03T16:30:00Z,29.2533,-90.6633,2.137,5.46,11111222 
LUMCON,ioos:station:LUMCON:101:1,2019-07-03T16:45:00Z,29.2533,-90.6633,2.142,5.51,11111222 
LUMCON,ioos:station:LUMCON:101:1,2019-07-03T17:00:00Z,29.2533,-90.6633,2.137,5.65,11111222 
LUMCON,ioos:station:LUMCON:101:1,2019-07-03T17:15:00Z,29.2533,-90.6633,2.138,5.65,11111222 
LUMCON,ioos:station:LUMCON:101:1,2019-07-03T17:30:00Z,29.2533,-90.6633,2.141,5.68,11111222 
LUMCON,ioos:station:LUMCON:101:1,2019-07-03T17:45:00Z,29.2533,-90.6633,2.148,5.64,11111222 
LUMCON,ioos:station:LUMCON:101:1,2019-07-03T18:00:00Z,29.2533,-90.6633,2.149,5.78,11111222 
LUMCON,ioos:station:LUMCON:101:1,2019-07-03T18:15:00Z,29.2533,-90.6633,2.146,5.47,11111222 
LUMCON,ioos:station:LUMCON:101:1,2019-07-03T18:30:00Z,29.2533,-90.6633,2.14,5.69,11111222 
LUMCON,ioos:station:LUMCON:101:1,2019-07-03T18:45:00Z,29.2533,-90.6633,2.134,5.83,11111222 
LUMCON,ioos:station:LUMCON:101:1,2019-07-03T19:00:00Z,29.2533,-90.6633,2.128,6.04,11111222 
LUMCON,ioos:station:LUMCON:101:1,2019-07-03T19:15:00Z,29.2533,-90.6633,2.118,5.78,11111222 
LUMCON,ioos:station:LUMCON:101:1,2019-07-03T19:30:00Z,29.2533,-90.6633,2.106,6.02,11111222 
LUMCON,ioos:station:LUMCON:101:1,2019-07-03T19:45:00Z,29.2533,-90.6633,2.093,6.45,11111222 
LUMCON,ioos:station:LUMCON:101:1,2019-07-03T20:00:00Z,29.2533,-90.6633,2.081,6.5,11111222 
LUMCON,ioos:station:LUMCON:101:1,2019-07-03T20:15:00Z,29.2533,-90.6633,2.068,6.36,11111222 
LUMCON,ioos:station:LUMCON:101:1,2019-07-03T20:30:00Z,29.2533,-90.6633,2.054,6.42,11111222 
LUMCON,ioos:station:LUMCON:101:1,2019-07-03T20:45:00Z,29.2533,-90.6633,2.039,6.34,11111222 
LUMCON,ioos:station:LUMCON:101:1,2019-07-03T21:00:00Z,29.2533,-90.6633,2.023,6.49,11111222 
LUMCON,ioos:station:LUMCON:101:1,2019-07-03T21:15:00Z,29.2533,-90.6633,2.009,6.3,11111222 
LUMCON,ioos:station:LUMCON:101:1,2019-07-03T21:30:00Z,29.2533,-90.6633,1.992,6.43,11111222 
LUMCON,ioos:station:LUMCON:101:1,2019-07-03T21:45:00Z,29.2533,-90.6633,1.977,6.44,11111222 
LUMCON,ioos:station:LUMCON:101:1,2019-07-03T22:00:00Z,29.2533,-90.6633,1.958,6.32,11111222 
LUMCON,ioos:station:LUMCON:101:1,2019-07-03T22:15:00Z,29.2533,-90.6633,1.946,6.29,11111222 
LUMCON,ioos:station:LUMCON:101:1,2019-07-03T22:30:00Z,29.2533,-90.6633,1.93,6.19,11111222 
LUMCON,ioos:station:LUMCON:101:1,2019-07-03T22:45:00Z,29.2533,-90.6633,1.916,6.45,11111222 
LUMCON,ioos:station:LUMCON:101:1,2019-07-03T23:00:00Z,29.2533,-90.6633,1.9,6.45,11111222 
LUMCON,ioos:station:LUMCON:101:1,2019-07-03T23:15:00Z,29.2533,-90.6633,1.884,6.5,11111222 
LUMCON,ioos:station:LUMCON:101:1,2019-07-03T23:30:00Z,29.2533,-90.6633,1.869,6.31,11111222 
LUMCON,ioos:station:LUMCON:101:1,2019-07-03T23:45:00Z,29.2533,-90.6633,1.856,6.55,11111222 
LUMCON,ioos:station:LUMCON:101:1,2019-07-04T00:00:00Z,29.2533,-90.6633,1.841,6.22,11111222 
LUMCON,ioos:station:LUMCON:101:1,2019-07-04T00:15:00Z,29.2533,-90.6633,1.828,5.96,11111222 
LUMCON,ioos:station:LUMCON:101:1,2019-07-04T00:30:00Z,29.2533,-90.6633,1.81,6.09,11111222 
LUMCON,ioos:station:LUMCON:101:1,2019-07-04T00:45:00Z,29.2533,-90.6633,1.795,6.08,11111222 
LUMCON,ioos:station:LUMCON:101:1,2019-07-04T01:00:00Z,29.2533,-90.6633,1.78,6.13,11111222 
LUMCON,ioos:station:LUMCON:101:1,2019-07-04T01:15:00Z,29.2533,-90.6633,1.768,6.34,11111222 
LUMCON,ioos:station:LUMCON:101:1,2019-07-04T01:30:00Z,29.2533,-90.6633,1.755,6.16,11111222 
LUMCON,ioos:station:LUMCON:101:1,2019-07-04T01:45:00Z,29.2533,-90.6633,1.744,6.19,11111222 
LUMCON,ioos:station:LUMCON:101:1,2019-07-04T02:00:00Z,29.2533,-90.6633,1.727,6.06,11111222 
LUMCON,ioos:station:LUMCON:101:1,2019-07-04T02:15:00Z,29.2533,-90.6633,1.712,6.19,11111222 
LUMCON,ioos:station:LUMCON:101:1,2019-07-04T02:30:00Z,29.2533,-90.6633,1.699,6.08,11111222 
LUMCON,ioos:station:LUMCON:101:1,2019-07-04T02:45:00Z,29.2533,-90.6633,1.688,6.06,11111222 
LUMCON,ioos:station:LUMCON:101:1,2019-07-04T03:00:00Z,29.2533,-90.6633,1.675,6.39,11111222 
LUMCON,ioos:station:LUMCON:101:1,2019-07-04T03:15:00Z,29.2533,-90.6633,1.665,6.21,11111222 
LUMCON,ioos:station:LUMCON:101:1,2019-07-04T03:30:00Z,29.2533,-90.6633,1.654,6.24,11111222 
LUMCON,ioos:station:LUMCON:101:1,2019-07-04T03:45:00Z,29.2533,-90.6633,1.648,6.18,11111222 
LUMCON,ioos:station:LUMCON:101:1,2019-07-04T04:00:00Z,29.2533,-90.6633,1.638,6.18,11111222 
LUMCON,ioos:station:LUMCON:101:1,2019-07-04T04:15:00Z,29.2533,-90.6633,1.628,6.0,11111222 
LUMCON,ioos:station:LUMCON:101:1,2019-07-04T04:30:00Z,29.2533,-90.6633,1.621,6.05,11111222 
LUMCON,ioos:station:LUMCON:101:1,2019-07-04T04:45:00Z,29.2533,-90.6633,1.616,6.15,11111222 
LUMCON,ioos:station:LUMCON:101:1,2019-07-04T05:00:00Z,29.2533,-90.6633,1.616,6.08,11111222 
LUMCON,ioos:station:LUMCON:101:1,2019-07-04T05:15:00Z,29.2533,-90.6633,1.608,6.02,11111222 
LUMCON,ioos:station:LUMCON:101:1,2019-07-04T05:30:00Z,29.2533,-90.6633,1.62,5.95,11111222 
LUMCON,ioos:station:LUMCON:101:1,2019-07-04T05:45:00Z,29.2533,-90.6633,1.621,6.02,11111222 
LUMCON,ioos:station:LUMCON:101:1,2019-07-04T06:00:00Z,29.2533,-90.6633,1.626,5.89,11111222 
LUMCON,ioos:station:LUMCON:101:1,2019-07-04T06:15:00Z,29.2533,-90.6633,1.624,5.77,11111222 
LUMCON,ioos:station:LUMCON:101:1,2019-07-04T06:30:00Z,29.2533,-90.6633,1.635,5.85,11111222 
LUMCON,ioos:station:LUMCON:101:1,2019-07-04T06:45:00Z,29.2533,-90.6633,1.647,5.56,11111222 
LUMCON,ioos:station:LUMCON:101:1,2019-07-04T07:00:00Z,29.2533,-90.6633,1.655,5.55,11111222 
LUMCON,ioos:station:LUMCON:101:1,2019-07-04T07:15:00Z,29.2533,-90.6633,1.661,5.37,11111222 
LUMCON,ioos:station:LUMCON:101:1,2019-07-04T07:30:00Z,29.2533,-90.6633,1.667,5.21,11111222 
LUMCON,ioos:station:LUMCON:101:1,2019-07-04T07:45:00Z,29.2533,-90.6633,1.676,4.6,11111222 